Location: Zapote
(9.9191°N, 84.0597°W)
Time: 12:02:29
(UTC-06:00)

Courier 1B Rocket - Pass Details

Date: 05 March 2021
Orbit: 920 x 1202 km, 28.2° (Epoch: 12 April)

Event Time Altitude Azimuth Distance (km) Brightness Sun altitude
Rises 19:20:57 0° 303° (WNW) 4,058 9.1 -23.9°
Reaches altitude 10° 19:23:49 10° 307° (NW) 3,112 8.3 -24.6°
Maximum altitude 19:31:30 59° 26° (NNE) 1,361 5.5 -26.5°
Enters shadow 19:32:46 53° 62° (ENE) 1,437 5.5 -26.8°
